This is the latest recevied weather packets stored in our database for station/object KE5YIM-13. If no packets are shown the sender has not sent any weather packets the latest 10 day(s).
| Time | Temp. | Humidity | Pressure | Rain* | Wind** | Luminosity | Snow |
|---|---|---|---|---|---|---|---|
| 1778013394 | 21.11° C | 62% | 1009.6 hPa | 0 mm | - | 388 W/m² | - |
| 1778013091 | 21.11° C | 62% | 1009.9 hPa | 0 mm | - | 432 W/m² | - |
| 1778012786 | 21.67° C | 62% | 1009.9 hPa | 0 mm | - | 458 W/m² | - |
| 1778012483 | 21.67° C | 63% | 1010 hPa | 0 mm | - | 484 W/m² | - |
| 1778012179 | 21.67° C | 62% | 1009.9 hPa | 0 mm | - | 483 W/m² | - |
| 1778011877 | 21.11° C | 63% | 1009.9 hPa | 0 mm | - | 518 W/m² | - |
| 1778011575 | 21.67° C | 62% | 1009.9 hPa | 0 mm | - | 501 W/m² | - |
| 1778011272 | 21.11° C | 62% | 1010 hPa | 0 mm | - | 505 W/m² | - |
| 1778010968 | 21.11° C | 63% | 1010 hPa | 0 mm | - | 539 W/m² | - |
| 1778010666 | 21.67° C | 62% | 1010.3 hPa | 0 mm | - | 559 W/m² | - |
| 1778010363 | 21.67° C | 61% | 1010 hPa | 0 mm | - | 570 W/m² | - |
| 1778010058 | 21.67° C | 62% | 1010.2 hPa | 0 mm | - | 585 W/m² | - |
| 1778009755 | 21.67° C | 61% | 1010.1 hPa | 0 mm | - | 598 W/m² | - |
| 1778009452 | 21.67° C | 62% | 1010.3 hPa | 0 mm | - | 625 W/m² | - |
| 1778009151 | 21.67° C | 62% | 1010.3 hPa | 0 mm | - | 616 W/m² | - |
| 1778008848 | 21.67° C | 62% | 1010.5 hPa | 0 mm | - | 629 W/m² | - |
| 1778008546 | 21.67° C | 62% | 1010.7 hPa | 0 mm | - | 655 W/m² | - |
| 1778008244 | 21.67° C | 61% | 1010.4 hPa | 0 mm | - | 665 W/m² | - |
| 1778007944 | 21.67° C | 63% | 1010.8 hPa | 0 mm | - | 672 W/m² | - |
| 1778007640 | 21.67° C | 62% | 1010.7 hPa | 0 mm | - | 682 W/m² | - |
| 1778007337 | 22.22° C | 61% | 1010.9 hPa | 0 mm | - | 693 W/m² | - |
| 1778007033 | 21.67° C | 63% | 1010.8 hPa | 0 mm | - | 704 W/m² | - |
| 1778006730 | 21.67° C | 63% | 1010.7 hPa | 0 mm | - | 709 W/m² | - |
| 1778006427 | 21.67° C | 62% | 1010.9 hPa | 0 mm | - | 721 W/m² | - |
| 1778006124 | 21.67° C | 62% | 1010.7 hPa | 0 mm | - | 728 W/m² | - |
* Rain latest hour (hover to see other rain measurements)
** Current wind speed in m/s (hover to see current wind gust speed)